Simultaneous Nadir Overpasses (SNOs) Predictions

Prediction of SNOs between FY3D and NOAA-19 Satellite Orbit:

Table of predicted SNOs for the next 14.0 days since TLE Epoch: 2/15/2025
Index Date (FY3D) Time (FY3D) Lat,Lon (FY3D) SZA (FY3D ) Date (NOAA-19) Time (NOAA-19) Lat,Lon (NOAA-19) SZA (NOAA-19 ) Distance(km) Time Diff (sec)
1 02/26/2025 14:37:02 -75.66, 146.53 95.94 02/26/2025 14:35:54 -75.64, 144.07 95.97 67.90 68
2 02/26/2025 15:27:55 76.03, -47.42 84.41 02/26/2025 15:26:42 76.01, -47.39 84.40 1.72 73
3 02/26/2025 16:18:40 -76.03, 119.88 95.60 02/26/2025 16:17:42 -76.04, 119.96 95.59 2.52 58
4 02/26/2025 17:09:25 76.03, -72.83 84.40 02/26/2025 17:08:38 76.05, -72.74 84.41 2.59 47
5 02/26/2025 18:00:10 -76.04, 94.47 95.62 02/26/2025 17:59:39 -76.03, 94.44 95.63 1.23 31
6 02/26/2025 18:50:55 76.04, -98.23 84.38 02/26/2025 18:50:35 76.04, -98.26 84.38 0.95 20
7 02/26/2025 19:41:40 -76.05, 69.06 95.63 02/26/2025 19:41:35 -76.07, 69.09 95.62 1.98 5
8 02/26/2025 20:32:25 76.05,-123.64 84.36 02/26/2025 20:32:31 76.08,-123.61 84.39 2.46 6
9 02/26/2025 21:23:10 -76.06, 43.66 95.65 02/26/2025 21:23:32 -76.06, 43.57 95.65 2.41 22
10 02/26/2025 22:13:55 76.06,-149.05 84.35 02/26/2025 22:14:28 76.07,-149.13 84.35 2.29 33
11 02/26/2025 23:04:40 -76.07, 18.25 95.67 02/26/2025 23:05:28 -76.09, 18.21 95.64 2.88 48
12 02/26/2025 23:55:25 76.07,-174.45 84.33 02/26/2025 23:56:24 76.10,-174.48 84.36 3.40 59
13 02/27/2025 00:46:10 -76.08, -7.16 95.68 02/27/2025 00:47:25 -76.08, -7.31 95.68 4.09 75
14 02/27/2025 01:37:05 76.53, 158.47 84.76 02/27/2025 01:38:11 76.53, 161.67 84.78 82.88 66



Historial Predications of SNOs between FY3D and NOAA-19
